Regional Weather Roundup
Issued by NWS State College, PA

Home | Current Version | Previous Version | Text Only | Print | Product List | Glossary On
Versions: 1 2 3 4 5 6 7 8 9 10 11 12 13 14 15 16 17 18 19 20 21 22 23 24 25 26 27 28 29 30 31 32 33 34 35 36 37 38 39 40 41 42 43 44 45 46 47 48 49 50
000
ASUS41 KCTP 210210
RWRCTP

REGIONAL WEATHER ROUNDUP
NATIONAL WEATHER SERVICE STATE COLLEGE PA
1000 PM EDT MON OCT 20 2014

Note: "fair" indicates few or no clouds below 12,000 feet with no
significant weather and/or obstructions to visibility.

* = STATION THAT DOES NOT REPORT PRECIPITATION /E.G. RAIN...SNOW...ETC/
    THUNDER OR FOG.

PAZ002>004-007>009-013>016-020>023-029>032-210300-
WESTERN PENNSYLVANIA

CITY           SKY/WX    TMP DP  RH WIND       PRES   REMARKS
ERIE           CLOUDY    52  47  83 S14       29.83S
MEADVILLE      LGT RAIN  48  46  93 S8        29.85S
FRANKLIN*      CLOUDY    46  45  93 S9        29.88S
NEW CASTLE     LGT RAIN  50  48  92 CALM      29.88S
BEAVER COUNTY  NOT AVBL
BUTLER*        CLOUDY    50  45  81 SW7       29.90S
PITTSBURGH INT CLOUDY    52  46  80 S6        29.88S
PITTSBURGH     CLOUDY    52  41  66 SW9       29.88S
INDIANA*       CLOUDY    50  45  81 SW3       29.93S
LATROBE        MOCLDY    52  45  76 SW5       29.90F
WASHINGTON CO* CLOUDY    52  45  76 SW6       29.91S
$$

PAZ004>006-010>012-017>019-024>028-033>037-041-042-045-046-049>053-210300-
CENTRAL PENNSYLVANIA

CITY           SKY/WX    TMP DP  RH WIND       PRES   REMARKS
BRADFORD       CLOUDY    46  42  86 S3        29.87S
DUBOIS         CLOUDY    47  44  90 CALM      29.88S
CLEARFIELD     CLOUDY    49  40  71 NW3       29.90S
JOHNSTOWN      CLOUDY    49  38  65 SW9       29.90S
ALTOONA        CLOUDY    49  43  80 CALM      29.91F
STATE COLLEGE  CLOUDY    51  38  63 CALM      29.91S
WILLIAMSPORT   LGT RAIN  53  40  61 CALM      29.90F
SELINSGROVE    CLOUDY    52  44  74 CALM      29.93S
FT INDIANTOWN  CLOUDY    51  50  99 NE2       29.95S
CAPITAL CITY   CLOUDY    57  43  59 S9        29.94F
HARRISBURG     CLOUDY    56  45  66 VRB5      29.94S
YORK           CLOUDY    56  46  69 S6        29.95S
$$

PAZ038>040-043-044-047-048-054-055-060>062-067>071-210300-
EASTERN PENNSYLVANIA

CITY           SKY/WX    TMP DP  RH WIND       PRES   REMARKS
SCRANTON       CLOUDY    55  40  56 SW7       29.93S
MOUNT POCONO   CLOUDY    50  39  66 SW6       29.95R
ALLENTOWN      CLOUDY    56  40  55 CALM      29.96S
QUAKERTOWN*    MOCLDY    52  43  71 SW5       29.97S
READING        CLOUDY    57  44  62 CALM      29.94S
LANCASTER      CLOUDY    55  46  71 S6        29.95S
COATESVILLE    CLOUDY    54  45  71 CALM      29.97S
POTTSTOWN      CLOUDY    55  42  61 VRB3      29.97F
BLUE BELL      PTCLDY    52  45  76 CALM      29.96S
DOYLESTOWN     PTCLDY    49  42  77 S5        29.96S
WILLOW GROVE   NOT AVBL
NORTH PHILA    PTCLDY    55  42  61 CALM      29.99S
PHILADELPHIA   MOCLDY    56  44  64 SW5       29.98S
$$


USA.gov is the U.S. government's official web portal to all federal, state and local government web resources and services.